This is the latest recevied weather packets stored in our database for station/object KB3UMW-13. If no packets are shown the sender has not sent any weather packets the latest 10 day(s).
| Time | Temp. | Humidity | Pressure | Rain* | Wind** | Luminosity | Snow |
|---|---|---|---|---|---|---|---|
| 1777723975 | 1.67° C | 94% | 1013.9 hPa | 0 mm | - | 55 W/m² | - |
| 1777723671 | 2.22° C | 95% | 1013.8 hPa | 0 mm | - | 44 W/m² | - |
| 1777723368 | 2.22° C | 95% | 1013.9 hPa | 0 mm | - | 61 W/m² | - |
| 1777723066 | 2.22° C | 95% | 1013.9 hPa | 0 mm | - | 52 W/m² | - |
| 1777722763 | 2.22° C | 95% | 1013.7 hPa | 0 mm | - | 50 W/m² | - |
| 1777722458 | 2.22° C | 95% | 1013.8 hPa | 0 mm | - | 46 W/m² | - |
| 1777722156 | 2.22° C | 96% | 1013.9 hPa | 0 mm | - | 55 W/m² | - |
| 1777721853 | 1.67° C | 95% | 1013.8 hPa | 0 mm | - | 49 W/m² | - |
| 1777721550 | 1.67° C | 95% | 1014 hPa | 0 mm | - | 33 W/m² | - |
| 1777721248 | 1.67° C | 94% | 1013.9 hPa | 0 mm | - | 37 W/m² | - |
| 1777720946 | 2.22° C | 96% | 1014 hPa | 0 mm | - | 42 W/m² | - |
| 1777720643 | 1.67° C | 95% | 1014.1 hPa | 0 mm | - | 34 W/m² | - |
| 1777720340 | 1.67° C | 96% | 1014.2 hPa | 0 mm | - | 32 W/m² | - |
| 1777720038 | 1.67° C | 95% | 1014 hPa | 0 mm | - | 27 W/m² | - |
| 1777719735 | 1.67° C | 96% | 1014 hPa | 0 mm | - | 18 W/m² | - |
| 1777719433 | 1.67° C | 95% | 1014.2 hPa | 0 mm | - | 15 W/m² | - |
| 1777719129 | 1.67° C | 95% | 1013.7 hPa | 0 mm | - | 17 W/m² | - |
| 1777718827 | 1.11° C | 95% | 1014.1 hPa | 0 mm | - | 13 W/m² | - |
| 1777718524 | 1.11° C | 94% | 1014 hPa | 0 mm | - | 8 W/m² | - |
| 1777718221 | 1.11° C | 95% | 1014.2 hPa | 0 mm | - | 7 W/m² | - |
| 1777717919 | 1.11° C | 95% | 1014.1 hPa | 0 mm | - | 5 W/m² | - |
| 1777717616 | 1.11° C | 94% | 1014 hPa | 0 mm | - | 4 W/m² | - |
| 1777717313 | 1.11° C | 94% | 1014.1 hPa | 0 mm | - | 3 W/m² | - |
| 1777717011 | 1.11° C | 94% | 1014.1 hPa | 0 mm | - | 2 W/m² | - |
| 1777716709 | 1.11° C | 93% | 1014 hPa | 0 mm | - | 1 W/m² | - |
* Rain latest hour (hover to see other rain measurements)
** Current wind speed in m/s (hover to see current wind gust speed)